Home > Weather > Manhattan > Past weeks

Flag for U.S.A. Weather for the Past 2 Weeks in Manhattan, Kansas, U.S.A.

Now
35 °F

Clear.


Feels Like: 29 °F
Forecast: 29 / 36 °F
Wind: 7 mph from Northwest

Location: Manhattan Municipal Airport

Current Time: Feb 8, 2016 at 3:07:28 AM

Latest Report: Feb 8, 2016 at 1:52 AM


Visibility: 10 mi

Pressure: 30.15 "Hg

Humidity: 48%

Dew point: 17 °F

Location of ManhattanLocation

Historic Weather in Manhattan — Graph

°F

Manhattan Temperature Yesterday

Maximum temperature yesterday: 52 °F (at 1:52 PM)
Minimum temperature yesterday: 36 °F (at 4:52 AM)
Average temperature yesterday: 43 °F

High & Low Weather Summary for the Past Weeks

 TemperatureHumidityPressure
High67 °F (Jan 29, 2:52 PM)100% (Feb 2, 2:59 AM)30.45 "Hg (Feb 2, 2:59 AM)
Low14 °F (Jan 24, 2:52 AM)22% (Feb 7, 3:52 PM)29.32 "Hg (Feb 2, 2:01 PM)
Average36 °F72%29.99 "Hg
* Reported Jan 24 1:52 AM — Feb 8 1:52 AM, Manhattan, Weather by CustomWeather, © 2016

Note: Actual official high and low records may vary slightly from our data, if they occured in-between our weather recording intervals... More about our weather records

Advertising

Manhattan Weather History for the Previous 24 Hours

 ConditionsComfort  
Time TempWeatherWind HumidityBarometerVisibility
1:52 AM
Mon, Feb 8
35 °FClear.7 mph48%30.15 "Hg10 mi
12:52 AM36 °FClear.10 mph48%30.15 "Hg10 mi
11:52 PM
Sun, Feb 7
38 °FClear.17 mph46%30.15 "Hg10 mi
10:52 PM37 °FClear.10 mph52%30.14 "Hg10 mi
9:52 PM37 °FPassing clouds.9 mph52%30.13 "Hg10 mi
8:52 PM40 °FOvercast.10 mph47%30.13 "Hg10 mi
7:52 PM41 °FOvercast.8 mph45%30.13 "Hg10 mi
6:52 PM42 °FPassing clouds.5 mph41%30.12 "Hg10 mi
5:52 PM46 °FMostly cloudy.17 mph35%30.11 "Hg10 mi
4:52 PM49 °FOvercast.17 mph31%30.10 "Hg10 mi
3:52 PM52 °FScattered clouds.18 mph22%30.10 "Hg10 mi
2:52 PM52 °FPassing clouds.14 mph25%30.11 "Hg10 mi
1:52 PM52 °FPassing clouds.15 mph31%30.11 "Hg10 mi
12:52 PM51 °FPartly sunny.21 mph28%30.14 "Hg10 mi
11:52 AM49 °FOvercast.9 mph41%30.16 "Hg10 mi
10:52 AM48 °FPartly sunny.9 mph41%30.16 "Hg10 mi
9:52 AM46 °FSunny.8 mph48%30.14 "Hg10 mi
8:52 AM41 °FSunny.3 mph62%30.13 "Hg10 mi
7:52 AM36 °FSunny.3 mph73%30.12 "Hg10 mi
6:52 AM36 °FClear.3 mph73%30.09 "Hg10 mi
5:52 AM36 °FClear.No wind70%30.06 "Hg10 mi
4:52 AM36 °FClear.3 mph67%30.05 "Hg10 mi
3:52 AM38 °FClear.7 mph60%30.02 "Hg10 mi
Weather by CustomWeather, © 2016

See weather overviewHow to use our weather pages